Location: Newark
(34.1333°N, 7.9667°W)
Time: 02:34:46
(UTC+00:00)

BlueWalker 3 - Visible Passes

Search period start: 01 February 2023 00:00
Search period end: 11 February 2023 00:00
Orbit: 499 x 517 km, 53.2° (Epoch: 31 January)

Date Brightness Start Highest point End Pass type
(mag) Time Alt. Az. Time Alt. Az. Time Alt. Az.
08 Feb 4.6 20:11:51 10° NNW 20:12:22 13° NNW 20:12:22 13° NNW visible
09 Feb 3.8 19:52:48 10° NNW 19:54:31 20° N 19:54:31 20° N visible
10 Feb 3.1 19:33:45 10° NNW 19:36:47 27° NNE 19:36:47 27° NNE visible
